This is the latest recevied weather packets stored in our database for station/object IU4KCH-20. If no packets are shown the sender has not sent any weather packets the latest 10 day(s).
| Time | Temp. | Humidity | Pressure | Rain* | Wind** | Luminosity | Snow |
|---|---|---|---|---|---|---|---|
| 1777556440 | 35.56° C | 19% | 1020 hPa | - | - | - | - |
| 1777555540 | 32.22° C | 23% | 1020.1 hPa | - | - | - | - |
| 1777554638 | 33.33° C | 22% | 1020.3 hPa | - | - | - | - |
| 1777553737 | 25° C | 32% | 1020.5 hPa | - | - | - | - |
| 1777552837 | 26.67° C | 28% | 1020.5 hPa | - | - | - | - |
| 1777551936 | 32.22° C | 24% | 1020.7 hPa | - | - | - | - |
| 1777551035 | 30.56° C | 26% | 1020.8 hPa | - | - | - | - |
| 1777550134 | 25° C | 34% | 1021 hPa | - | - | - | - |
| 1777549236 | 23.33° C | 36% | 1021 hPa | - | - | - | - |
| 1777548332 | 23.33° C | 38% | 1021 hPa | - | - | - | - |
| 1777547432 | 22.78° C | 37% | 1021.2 hPa | - | - | - | - |
| 1777546531 | 21.67° C | 39% | 1021.2 hPa | - | - | - | - |
| 1777544729 | 20.56° C | 46% | 1021.3 hPa | - | - | - | - |
| 1777543828 | 20.56° C | 47% | 1021.3 hPa | - | - | - | - |
| 1777542927 | 20° C | 48% | 1021.3 hPa | - | - | - | - |
| 1777542027 | 19.44° C | 49% | 1021.3 hPa | - | - | - | - |
| 1777541126 | 19.44° C | 49% | 1021.4 hPa | - | - | - | - |
| 1777540225 | 18.89° C | 50% | 1021.5 hPa | - | - | - | - |
| 1777539324 | 18.33° C | 51% | 1021.5 hPa | - | - | - | - |
| 1777538423 | 18.33° C | 52% | 1021.5 hPa | - | - | - | - |
| 1777537522 | 17.78° C | 52% | 1021.4 hPa | - | - | - | - |
| 1777536621 | 17.22° C | 53% | 1021.3 hPa | - | - | - | - |
| 1777535721 | 17.78° C | 54% | 1021 hPa | - | - | - | - |
| 1777534820 | 17.22° C | 56% | 1021.1 hPa | - | - | - | - |
| 1777533919 | 16.11° C | 56% | 1021.1 hPa | - | - | - | - |
* Rain since midnight (hover to see other rain measurements)
** Current wind speed in m/s (hover to see current wind gust speed)